Погода в Возжаевке

Россия / Амурская область     50°43′50″N   128°42′47″E
темп.,
°C
ветер,
м/с
пор.,
м/с
влажн.,
%
обл.,
%
осадки,
мм/ч
давл.,
гПа
погр.,
м
17 июня, чт
чт1700:00+18юв41092100 1.1 997185
03:00+18ююв71593100 3.8 995356
06:00+19ююв81887100 1.8 993615
09:00+18ююв101890100 4.4 992962
12:00+18ююв112095100 8.6 9911312
15:00+18ю81388100 17.3 9921145
18:00+19ююз813750 0.8 9941070
21:00+15ююв49810 0.8 997163
18 июня, пт
пт1800:00+14вюв512880 0.0 997210
03:00+14вюв61396100 0.0 997309
06:00+14вюв61394100 0.2 996352
09:00+17вюв71190100 0.6 994694
12:00+17юв7119278 0.8 994678
15:00+18ююв6984100 4.4 995771
18:00+15юв61292100 3.0 996441
21:00+14юв61295100 3.3 998504
19 июня, сб
сб1900:00+13вюв41296100 0.5 999453
03:00+13вюв4119679 0.6 999297
06:00+14вюв41192100 0.0 1000329
09:00+18юв61177100 0.0 1001927
12:00+19вюв71074100 0.9 10021244
15:00+21юв6969100 1.2 10021281
18:00+20вюв4777100 0.4 1003731
21:00+16вюв3485100 0.7 100468
20 июня, вс
вс2000:00+15вюв3487100 0.0 100563
03:00+13в348894 0.0 100654
06:00+14всв358488 0.0 1007115
09:00+20вюв246571 0.0 1007443
12:00+23всв3555100 0.0 10071532
15:00+20ююв3570100 0.1 1007213
18:00+18юв237699 0.2 100745
21:00+16юв2275100 0.2 100820
21 июня, пн
пн2100:00+15ю22775 0.0 100926
03:00+13ююз228568 0.0 101020
06:00+15юз23856 0.0 101196
09:00+20юз236717 0.0 1011480
12:00+23юз22553 0.0 10101077
15:00+24зюз22500 0.0 10091314
18:00+24зюз22600 0.0 10081081
21:00+18зюз22700 0.0 100914